Regional Weather Roundup
Issued by NWS

Home | Current Version | Previous Version | Graphics & Text | Print | Product List | Glossary On
Versions: 1 2 3 4 5 6 7 8 9 10 11 12 13 14 15 16 17 18 19 20 21 22 23 24 25 26 27 28 29 30 31 32 33 34 35 36 37 38 39 40 41 42 43 44 45 46 47 48 49 50
000
ASUS43 KOAX 300602
RWRNE

WEATHER ROUNDUP FOR NEBRASKA
NATIONAL WEATHER SERVICE OMAHA NE
1200 AM CST FRI JAN 30 2015

NOTES: SATELLITE DATA IS BEING USED TO AUGMENT CLOUD COVER ABOVE
       12000 FEET.
       "FAIR" INDICATES FEW OR NO CLOUDS BELOW 12,000 FEET WITH NO
       SIGNIFICANT WEATHER AND/OR OBSTRUCTIONS TO VISIBILITY.

  * THESE STATIONS DO NOT REPORT WEATHER SUCH AS RAIN...SNOW OR FOG.

NEZ001>004-019>022-054>056-300700-
NEBRASKA PANHANDLE

CITY           SKY/WX    TMP DP  RH WIND       PRES   REMARKS
SCOTTSBLUFF    MOCLDY    28  21  75 E8        30.36F WCI  20
6HR MIN TEMP:  27; 6HR MAX TEMP:  41;

ALLIANCE       PTCLDY    25  18  74 S9        30.36F WCI  15
6HR MIN TEMP:  23; 6HR MAX TEMP:  37;

CHADRON        CLEAR     27  18  69 VRB3      30.34F
6HR MIN TEMP:  25; 6HR MAX TEMP:  37;

SIDNEY         PTCLDY    29  19  66 S6        30.38F WCI  23
6HR MIN TEMP:  26; 6HR MAX TEMP:  37;

$$

NEZ057>060-069>072-079>082-300700-
SOUTHWEST NEBRASKA

CITY           SKY/WX    TMP DP  RH WIND       PRES   REMARKS
NORTH PLATTE   PTCLDY    18  12  77 CALM      30.45F
6HR MIN TEMP:  17; 6HR MAX TEMP:  39;

IMPERIAL       MOCLDY    25  17  72 S3        30.44F
6HR MIN TEMP:  22; 6HR MAX TEMP:  40;

MCCOOK         PTCLDY    22  16  78 CALM      30.47F
6HR MIN TEMP:  22; 6HR MAX TEMP:  42;

$$

NEZ005>010-023>029-035>040-094-300700-
NORTH CENTRAL NEBRASKA

CITY           SKY/WX    TMP DP  RH WIND       PRES   REMARKS
VALENTINE      CLEAR     21  17  84 NE3       30.43S
6HR MIN TEMP:  20; 6HR MAX TEMP:  38;

BROKEN BOW     PTCLDY    18  15  88 CALM      30.46F
6HR MIN TEMP:  16; 6HR MAX TEMP:  36;

ORD            CLEAR     18  14  84 SW3       30.49R
6HR MIN TEMP:  16; 6HR MAX TEMP:  36;

$$

NEZ041-046>049-061>064-073>077-083>087-300700-
SOUTH CENTRAL NEBRASKA

CITY           SKY/WX    TMP DP  RH WIND       PRES   REMARKS
GRAND ISLAND     N/A     22  17  81 MISG      30.52R
6HR MIN TEMP:  21; 6HR MAX TEMP:  37;

HASTINGS       PTCLDY    20  13  74 NE3       30.50S
6HR MIN TEMP:  19; 6HR MAX TEMP:  37;

KEARNEY *      PTCLDY    23  14  68 CALM      30.50R
$$

NEZ011>018-030>034-042>045-300700-
NORTHEAST NEBRASKA

CITY           SKY/WX    TMP DP  RH WIND       PRES   REMARKS
NORFOLK        CLEAR     23  18  81 N3        30.53R
6HR MIN TEMP:  22; 6HR MAX TEMP:  32;

COLUMBUS *     CLEAR     19   9  63 MISG      30.54S
TEKAMAH        CLEAR     23  19  85 NW3       30.56R
6HR MIN TEMP:  22; 6HR MAX TEMP:  34;

$$

NEZ050>053-065>068-078-088>093-300700-
SOUTHEAST NEBRASKA

CITY           SKY/WX    TMP DP  RH WIND       PRES   REMARKS
LINCOLN        CLEAR     20  17  88 NW3       30.56R
6HR MIN TEMP:  20; 6HR MAX TEMP:  35;

OMAHA EPPLEY   CLEAR     26  21  81 N6        30.55R WCI  19
6HR MIN TEMP:  25; 6HR MAX TEMP:  35;

FALLS CITY     CLEAR     21  17  84 W5        30.54S WCI  15
6HR MIN TEMP:  18; 6HR MAX TEMP:  35;

$$

NEZ044-045-051>053-067-300700-
OMAHA AREA

CITY           SKY/WX    TMP DP  RH WIND       PRES   REMARKS
OMAHA EPPLEY   CLEAR     26  21  81 N6        30.55R WCI  19
6HR MIN TEMP:  25; 6HR MAX TEMP:  35;

OFFUTT AFB     CLEAR     26  20  77 N6        30.54R WCI  19
$$


USA.gov is the U.S. government's official web portal to all federal, state and local government web resources and services.